Back to catalog

SL-16 DEB

AliveLEO
NORAD 31794·DEBRIS·🇷🇺 Russia

Launched Jun 29, 2007 from Baikonur Cosmodrome

Loading…

Next Passes (next 24 hours)

TLE

FreshSource: Space-Track

Epoch: Sep 14, 2026, 02:07 UTC

1 31794U 07029C   26257.08841507  .00000046  00000-0  83706-4 0  9995
2 31794  71.0421 123.8822 0204725 182.3480 331.2207 13.71801572961530

Track SL-16 DEB in real time with AllMySat

Download on the App Store